Location: Rehoboth Beach
(38.7438°N, 75.1341°W)
Time: 08:59:49
(UTC-04:00)

HST - Visible Passes

Search period start: 24 July 2014 00:00
Search period end: 03 August 2014 00:00
Orbit: 548 x 552 km, 28.5° (Epoch: 24 July)

Date Brightness Start Highest point End Pass type
(mag) Time Alt. Az. Time Alt. Az. Time Alt. Az.
24 Jul 2.4 21:04:43 10° SW 21:07:46 20° S 21:10:23 12° SE visible
25 Jul 2.5 20:57:53 10° SW 21:00:50 19° S 21:03:47 10° SE visible
26 Jul 2.7 20:51:06 10° SW 20:53:54 17° S 20:56:41 10° SSE visible
27 Jul 2.8 20:44:26 10° SW 20:46:57 16° SSW 20:49:28 10° SSE visible
